Weather History for Marshfield, WI

Change the Weather History Date:

Monday, July 15, 2013

  Actual Average Record
Temperature  
Mean Temperature 75 °F -  
Max Temperature 84 °F 82 °F 101 °F (1936)
Min Temperature 66 °F 56 °F 42 °F (1967)
Cooling Degree Days 10    
Growing Degree Days 25 (Base 50)    
Moisture  
Dew Point 68 °F    
Average Humidity 78    
Maximum Humidity 93    
Minimum Humidity 58    
Precipitation  
Precipitation 0.23 in - - ()
Sea Level Pressure  
Sea Level Pressure 30.26 in    
Wind  
Wind Speed 2 mph (South)    
Max Wind Speed 10 mph    
Max Gust Speed 20 mph    
Visibility 9 miles    
Events Rain    
Averages and records for this station are not official NWS values.
T = Trace of Precipitation, MM = Missing Value Source: NWS Daily Summary

Daily Weather History Graph

Daily Weather History Graph

Search for Another Location

Airport:

Trip Planner

Search our weather history database for the weather conditions in past years. The results will help you decide how hot, cold, wet, or windy it might be!

Date:

Astronomy

Jul. 15, 2013 Rise Set
Actual Time 5:29 AM CDT 8:43 PM CDT
Civil Twilight 4:54 AM CDT 9:18 PM CDT
Nautical Twilight 4:08 AM CDT 10:04 PM CDT
Astronomical Twilight 3:11 AM CDT 11:00 PM CDT
Moon 1:10 PM CDT (7/15) No Moon Set
Length of Visible Light 16h 24m
Length of Day
15h 13m
Waxing Crescent, 45% of the Moon is Illuminated
Jul 15
Waxing Crescent
Jul 15
First Quarter
Jul 22
Full
Jul 29
Last Quarter
Aug 6
New

Hourly Weather History & Observations

Time (CDT) Temp. Heat Index Dew Point Humidity Pressure Visibility Wind Dir Wind Speed Gust Speed Precip Events Conditions
12:54 AM 69.1 °F - 64.0 °F 84% 30.24 in 10.0 mi Calm Calm - N/A   Clear
1:54 AM 68.0 °F - 64.0 °F 87% 30.25 in 10.0 mi SSE 3.5 mph - N/A   Partly Cloudy
2:54 AM 68.0 °F - 64.0 °F 87% 30.25 in 10.0 mi Calm Calm - N/A   Scattered Clouds
3:54 AM 69.1 °F - 64.9 °F 87% 30.25 in 9.0 mi Calm Calm - N/A   Scattered Clouds
4:54 AM 68.0 °F - 64.9 °F 90% 30.25 in 8.0 mi Calm Calm - N/A   Clear
5:54 AM 66.0 °F - 64.0 °F 93% 30.26 in 6.0 mi Calm Calm - N/A   Clear
6:54 AM 70.0 °F - 66.9 °F 90% 30.26 in 6.0 mi Calm Calm - N/A   Clear
7:54 AM 75.0 °F - 68.0 °F 79% 30.27 in 9.0 mi South 3.5 mph - N/A   Clear
8:54 AM 78.1 °F - 69.1 °F 74% 30.28 in 10.0 mi Calm Calm - N/A   Clear
9:54 AM 81.0 °F 84.1 °F 69.1 °F 67% 30.28 in 10.0 mi SW 3.5 mph - N/A   Clear
10:54 AM 81.0 °F 83.8 °F 68.0 °F 65% 30.28 in 10.0 mi South 4.6 mph - N/A   Partly Cloudy
11:54 AM 84.0 °F 87.0 °F 68.0 °F 58% 30.27 in 10.0 mi SSE 5.8 mph - N/A   Mostly Cloudy
12:54 PM 81.0 °F 84.4 °F 70.0 °F 69% 30.27 in 10.0 mi Calm Calm - N/A   Overcast
1:24 PM 73.4 °F - 69.8 °F 88% 30.29 in 1.8 mi West 10.4 mph 19.6 mph 0.11 in Rain Rain
1:27 PM 73.4 °F - 68.0 °F 83% 30.30 in 0.8 mi NW 5.8 mph - 0.22 in Rain Heavy Rain
1:35 PM 73.4 °F - 69.8 °F 88% 30.29 in 1.2 mi NNW 5.8 mph - 0.23 in Rain Light Rain
1:43 PM 75.2 °F - 71.6 °F 89% 30.29 in 10.0 mi North 6.9 mph - 0.23 in Rain Light Rain
1:54 PM 75.9 °F - 71.1 °F 85% 30.28 in 10.0 mi North 6.9 mph - 0.23 in   Overcast
2:54 PM 81.0 °F 84.9 °F 71.1 °F 72% 30.26 in 10.0 mi Calm Calm - N/A   Mostly Cloudy
3:54 PM 82.9 °F 87.5 °F 71.1 °F 67% 30.25 in 10.0 mi South 3.5 mph - 0.00 in   Clear
4:54 PM 84.0 °F 89.0 °F 71.1 °F 65% 30.24 in 10.0 mi Variable 3.5 mph - N/A   Mostly Cloudy
5:54 PM 84.9 °F 88.8 °F 69.1 °F 59% 30.22 in 10.0 mi South 6.9 mph - N/A   Clear
6:54 PM 84.0 °F 87.8 °F 69.1 °F 61% 30.22 in 10.0 mi SSE 4.6 mph - N/A   Clear
7:54 PM 81.0 °F 84.1 °F 69.1 °F 67% 30.22 in 10.0 mi SE 3.5 mph - N/A   Clear
8:54 PM 78.1 °F - 70.0 °F 76% 30.22 in 10.0 mi Calm Calm - N/A   Clear
9:54 PM 75.9 °F - 70.0 °F 82% 30.23 in 10.0 mi Calm Calm - N/A   Clear
10:54 PM 75.0 °F - 70.0 °F 84% 30.23 in 9.0 mi Calm Calm - N/A   Clear
11:54 PM 75.0 °F - 70.0 °F 84% 30.24 in 9.0 mi SSE 4.6 mph - N/A   Clear